Location: Tauranga
(37.6860°S, 176.1670°E)
Time: 13:17:41
(UTC+13:00)

Cosmos 2237 Rocket - Pass Details

Date: 24 January 2019
Orbit: 833 x 851 km, 71.0° (Epoch: 21 February)

Event Time Altitude Azimuth Distance (km) Brightness Sun altitude
Exits shadow 23:51:02 31° 118° (ESE) 1,454 3.4 -28.8°
Drops below altitude 10° 23:54:23 10° 143° (SE) 2,487 4.9 -29.0°
Sets 23:56:57 0° 150° (SSE) 3,426 5.8 -29.3°
